This demonstration page uses our WeatherBlox Daily Observations layout. Learn more.

36.17497, -115.13722

Hourly Observations for May 1, 2015

Temp ( °F °C ) Dew Point ( °F °C ) Humidity (%) Winds ( mph kmh ) Pressure ( in mb ) Visibility ( mi km ) Precip ( " mm )
12:53 am 00:53 Clear 78 25.6 24 -4.4 13 13 WNW 7 11 29.81 1010 10 16.0934 0 0
1:53 am 01:53 Clear 76 24.4 25 -3.9 15 15 WNW 9 15 29.81 1009 10 16.0934 0 0
2:53 am 02:53 Clear 73 22.8 29 -1.7 19 19 WNW 7 11 29.81 1010 10 16.0934 0 0
3:53 am 03:53 Clear 72 22.2 29 -1.7 20 20 NW 6 9 29.82 1010 10 16.0934 0 0
4:53 am 04:53 Clear 71 21.7 28 -2.2 20 20 Calm 29.83 1010 10 16.0934 0 0
5:53 am 05:53 Sunny 70 21.1 27 -2.8 20 20 N 5 7 29.85 1011 10 16.0934 0 0
6:53 am 06:53 Sunny 70 21.1 28 -2.2 21 21 N 5 7 29.88 1012 10 16.0934 0 0
7:53 am 07:53 Sunny 75 23.9 28 -2.2 18 18 NNW 3 6 29.89 1012 10 16.0934 0 0
8:53 am 08:53 Sunny 80 26.7 25 -3.9 13 13 ESE 6 9 29.9 1013 10 16.0934 0 0
9:53 am 09:53 Sunny 82 27.8 26 -3.3 13 13 VRB 7 11 29.91 1013 10 16.0934 0 0
10:53 am 10:53 Sunny 85 29.4 24 -4.4 11 11 S 3 6 29.91 1013 10 16.0934 0 0
11:53 am 11:53 Sunny 88 31.1 23 -5 9 9 Calm 29.89 1012 10 16.0934 0 0
12:53 pm 12:53 Sunny 90 32.2 23 -5 9 9 SE 9 15 29.85 1011 10 16.0934 0 0
1:53 pm 13:53 Sunny 91 32.8 22 -5.6 8 8 SSW 7 11 29.83 1010 10 16.0934 0 0
2:53 pm 14:53 Sunny 94 34.4 15 -9.4 5 5 WSW 17 28 29.79 1009 10 16.0934 0 0
3:53 pm 15:53 Sunny 93 33.9 17 -8.3 6 6 W 13 20 29.78 1008 10 16.0934 0 0
4:53 pm 16:53 Sunny 92 33.3 16 -8.9 6 6 W 14 22 29.77 1008 10 16.0934 0 0
5:53 pm 17:53 Sunny 91 32.8 15 -9.4 6 6 W 14 22 29.77 1008 10 16.0934 0 0
6:53 pm 18:53 Sunny 89 31.7 19 -7.2 7 7 W 12 19 29.77 1008 10 16.0934 0 0
7:53 pm 19:53 Clear 87 30.6 20 -6.7 8 8 W 10 17 29.78 1009 10 16.0934 0 0
8:53 pm 20:53 Clear 86 30 21 -6.1 9 9 WSW 7 11 29.8 1009 10 16.0934 0 0
9:53 pm 21:53 Clear 83 28.3 23 -5 11 11 SSW 5 7 29.81 1010 10 16.0934 0 0
10:53 pm 22:53 Clear 81 27.2 24 -4.4 12 12 W 3 6 29.81 1010 10 16.0934 0 0
11:53 pm 23:53 Clear 77 25 26 -3.3 15 15 Calm 29.82 1010 10 16.0934 0 0

Powered by AerisWeather